Radiation Dose at Monitoring Post of Fukushima Daini Nuclear Power Station
Date,Time,MP-1(microSv/h),MP-2(microSv/h),MP-3(microSv/h),MP-4(microSv/h),MP-5(microSv/h),MP-6(microSv/h),MP-7(microSv/h),Wind Direction,Wind Velocity(m/s),Rain
2014/10/12,00:00,0.632,0.440,0.674,0.611,0.601,0.277,0.246,northeast,4.7,No
2014/10/12,00:10,0.632,0.438,0.671,0.611,0.600,0.276,0.245,northeast,3.7,No
2014/10/12,00:20,0.633,0.440,0.672,0.609,0.600,0.278,0.245,northeast,4.9,No
2014/10/12,00:30,0.630,0.440,0.672,0.611,0.600,0.276,0.244,northeast,4.4,No
2014/10/12,00:40,0.631,0.440,0.674,0.609,0.599,0.276,0.245,northeast,5.2,No
2014/10/12,00:50,0.632,0.439,0.671,0.610,0.600,0.277,0.245,northeast,4.7,No
2014/10/12,01:00,0.631,0.440,0.672,0.611,0.601,0.276,0.245,north-northeast,4.1,No
2014/10/12,01:10,0.633,0.439,0.673,0.611,0.601,0.276,0.245,northeast,3.6,No
2014/10/12,01:20,0.633,0.440,0.670,0.611,0.601,0.278,0.246,northeast,3.1,No
2014/10/12,01:30,0.632,0.440,0.673,0.609,0.600,0.277,0.244,northeast,4.3,No
2014/10/12,01:40,0.633,0.441,0.674,0.609,0.602,0.278,0.245,northeast,3.4,No
2014/10/12,01:50,0.632,0.439,0.674,0.609,0.600,0.276,0.245,north,2.5,No
2014/10/12,02:00,0.632,0.442,0.672,0.610,0.599,0.276,0.245,north,2.2,No
2014/10/12,02:10,0.632,0.441,0.672,0.611,0.600,0.276,0.244,north-northeast,2.8,No
2014/10/12,02:20,0.631,0.440,0.671,0.608,0.600,0.276,0.245,northeast,3.3,No
2014/10/12,02:30,0.633,0.440,0.672,0.610,0.600,0.276,0.245,north-northeast,3.1,No
2014/10/12,02:40,0.633,0.439,0.671,0.611,0.600,0.276,0.244,north-northeast,3.3,No
2014/10/12,02:50,0.632,0.440,0.674,0.609,0.601,0.277,0.246,northeast,4.6,No
2014/10/12,03:00,0.632,0.439,0.674,0.610,0.600,0.277,0.245,northeast,3.9,No
2014/10/12,03:10,0.632,0.440,0.672,0.611,0.597,0.275,0.245,northeast,4.4,No
2014/10/12,03:20,0.631,0.438,0.672,0.610,0.600,0.276,0.245,northeast,3.3,No
2014/10/12,03:30,0.632,0.441,0.672,0.610,0.599,0.276,0.246,east-northeast,2.8,No
2014/10/12,03:40,0.634,0.440,0.673,0.611,0.599,0.277,0.244,north-northeast,2.7,No
2014/10/12,03:50,0.633,0.440,0.674,0.610,0.600,0.277,0.244,northeast,4.9,No
2014/10/12,04:00,0.633,0.439,0.672,0.610,0.600,0.277,0.245,north,4.4,No
2014/10/12,04:10,0.634,0.440,0.672,0.611,0.601,0.277,0.245,north,5.8,No
2014/10/12,04:20,0.634,0.440,0.673,0.608,0.602,0.278,0.244,north-northwest,5.6,No
2014/10/12,04:30,0.632,0.442,0.673,0.610,0.601,0.276,0.245,north-northwest,5.7,No
2014/10/12,04:40,0.633,0.440,0.673,0.610,0.601,0.277,0.246,north-northwest,5.1,No
2014/10/12,04:50,0.633,0.441,0.672,0.611,0.601,0.277,0.245,north-northwest,5.0,No
2014/10/12,05:00,0.632,0.439,0.672,0.610,0.600,0.278,0.246,north-northwest,5.5,No
2014/10/12,05:10,0.634,0.439,0.673,0.609,0.601,0.277,0.246,north-northwest,4.7,No
2014/10/12,05:20,0.632,0.438,0.673,0.611,0.600,0.277,0.245,north-northwest,4.1,No
2014/10/12,05:30,0.632,0.439,0.673,0.611,0.600,0.277,0.245,north-northwest,3.2,No
2014/10/12,05:40,0.633,0.441,0.673,0.610,0.601,0.276,0.243,north-northwest,3.6,No
2014/10/12,05:50,0.632,0.441,0.672,0.610,0.599,0.277,0.245,north-northwest,3.6,No
2014/10/12,06:00,0.634,0.438,0.672,0.609,0.602,0.276,0.245,north-northwest,3.6,No
2014/10/12,06:10,0.633,0.440,0.672,0.610,0.599,0.277,0.244,north,2.9,No
2014/10/12,06:20,0.633,0.440,0.672,0.612,0.601,0.277,0.245,north-northwest,3.0,No
2014/10/12,06:30,0.633,0.441,0.674,0.610,0.601,0.276,0.244,north,2.8,No
2014/10/12,06:40,0.634,0.440,0.673,0.609,0.601,0.277,0.246,north-northwest,2.3,No
2014/10/12,06:50,0.633,0.440,0.677,0.609,0.601,0.277,0.244,north-northwest,2.3,No
2014/10/12,07:00,0.633,0.440,0.673,0.609,0.599,0.277,0.245,north,3.0,No
2014/10/12,07:10,0.633,0.441,0.674,0.610,0.601,0.276,0.245,north,3.2,No
2014/10/12,07:20,0.634,0.439,0.674,0.609,0.601,0.277,0.244,north,3.1,No
2014/10/12,07:30,0.631,0.441,0.672,0.611,0.600,0.278,0.245,north,3.4,No
2014/10/12,07:40,0.633,0.441,0.672,0.610,0.599,0.277,0.245,north-northwest,2.8,No
2014/10/12,07:50,0.633,0.439,0.673,0.611,0.602,0.277,0.246,north-northwest,1.6,No
2014/10/12,08:00,0.633,0.441,0.672,0.611,0.601,0.279,0.244,north,1.9,No
2014/10/12,08:10,0.632,0.441,0.673,0.610,0.601,0.276,0.246,north-northwest,2.5,No
2014/10/12,08:20,0.632,0.440,0.673,0.612,0.601,0.279,0.245,north-northwest,2.7,No
2014/10/12,08:30,0.634,0.441,0.674,0.615,0.600,0.276,0.242,north-northwest,1.6,No
2014/10/12,08:40,0.635,0.442,0.674,0.613,0.602,0.277,0.242,north-northeast,1.8,No
2014/10/12,08:50,0.633,0.443,0.674,0.613,0.601,0.277,0.245,north-northeast,1.7,No
2014/10/12,09:00,0.632,0.441,0.672,0.614,0.601,0.276,0.244,northeast,1.6,No
2014/10/12,09:10,0.634,0.443,0.675,0.611,0.602,0.276,0.243,north-northeast,1.8,No
2014/10/12,09:20,0.633,0.442,0.674,0.614,0.602,0.275,0.246,northeast,2.6,No
2014/10/12,09:30,0.635,0.442,0.674,0.616,0.602,0.277,0.244,northeast,3.1,No
2014/10/12,09:40,0.634,0.442,0.674,0.617,0.603,0.276,0.244,northeast,2.2,No
2014/10/12,09:50,0.634,0.443,0.674,0.615,0.602,0.276,0.246,northeast,1.9,No
2014/10/12,10:00,0.635,0.444,0.674,0.617,0.604,0.277,0.244,northeast,1.9,No
2014/10/12,10:10,0.635,0.444,0.675,0.618,0.604,0.275,0.245,northeast,2.4,No
2014/10/12,10:20,0.636,0.445,0.675,0.617,0.604,0.277,0.245,north-northeast,2.6,No
2014/10/12,10:30,0.637,0.445,0.676,0.621,0.602,0.277,0.245,east-northeast,1.9,No
2014/10/12,10:40,0.635,0.445,0.676,0.622,0.605,0.277,0.247,northeast,2.5,No
2014/10/12,10:50,0.636,0.444,0.677,0.620,0.605,0.276,0.246,northeast,2.3,No
2014/10/12,11:00,0.637,0.446,0.677,0.623,0.607,0.276,0.245,northeast,1.5,No
2014/10/12,11:10,0.638,0.446,0.675,0.624,0.605,0.276,0.245,northeast,1.9,No
2014/10/12,11:20,0.641,0.447,0.675,0.622,0.606,0.277,0.245,east-northeast,2.1,No
2014/10/12,11:30,0.639,0.445,0.676,0.624,0.607,0.276,0.245,east-southeast,0.6,No
2014/10/12,11:40,0.637,0.446,0.677,0.625,0.606,0.276,0.245,east,1.2,No
2014/10/12,11:50,0.638,0.446,0.677,0.625,0.604,0.277,0.244,east-southeast,0.8,No
2014/10/12,12:00,0.637,0.446,0.676,0.624,0.608,0.277,0.245,south-southeast,1.4,No
2014/10/12,12:10,0.636,0.446,0.676,0.626,0.607,0.276,0.246,south-southwest,0.9,No
2014/10/12,12:20,0.637,0.445,0.678,0.622,0.608,0.277,0.244,south-southeast,1.8,No
2014/10/12,12:30,0.641,0.446,0.678,0.624,0.607,0.276,0.246,south-southeast,2.4,No
2014/10/12,12:40,0.640,0.445,0.678,0.623,0.606,0.276,0.246,south-southeast,2.3,No
2014/10/12,12:50,0.640,0.446,0.677,0.623,0.606,0.276,0.244,south,3.3,No
2014/10/12,13:00,0.641,0.445,0.678,0.623,0.606,0.276,0.246,south,3.1,No
2014/10/12,13:10,0.639,0.445,0.678,0.624,0.607,0.277,0.245,south,3.2,No
2014/10/12,13:20,0.639,0.447,0.677,0.622,0.606,0.277,0.244,south,3.3,No
2014/10/12,13:30,0.641,0.446,0.679,0.623,0.605,0.277,0.246,south-southeast,3.2,No
2014/10/12,13:40,0.641,0.445,0.678,0.625,0.605,0.276,0.246,south-southeast,2.8,No
2014/10/12,13:50,0.640,0.445,0.679,0.627,0.606,0.276,0.243,south-southeast,3.1,No
2014/10/12,14:00,0.641,0.445,0.681,0.623,0.603,0.277,0.245,southeast,3.0,No
2014/10/12,14:10,0.641,0.445,0.681,0.625,0.605,0.277,0.246,south,2.8,No
2014/10/12,14:20,0.640,0.446,0.683,0.624,0.604,0.276,0.244,south-southeast,3.6,No
2014/10/12,14:30,0.641,0.446,0.683,0.623,0.605,0.277,0.247,south-southeast,4.1,No
2014/10/12,14:40,0.640,0.445,0.680,0.624,0.605,0.277,0.245,south,3.9,No
2014/10/12,14:50,0.639,0.445,0.681,0.625,0.602,0.277,0.246,south-southeast,4.7,No
2014/10/12,15:00,0.642,0.445,0.681,0.623,0.603,0.275,0.246,south,4.4,No
2014/10/12,15:10,0.640,0.444,0.683,0.621,0.604,0.277,0.246,south-southeast,4.4,No
2014/10/12,15:20,0.638,0.445,0.680,0.623,0.605,0.277,0.246,south-southeast,3.6,No
2014/10/12,15:30,0.640,0.445,0.678,0.622,0.604,0.276,0.245,south-southeast,3.2,No
2014/10/12,15:40,0.637,0.445,0.676,0.622,0.603,0.275,0.246,south,3.3,No
2014/10/12,15:50,0.638,0.442,0.677,0.619,0.603,0.277,0.245,south,4.4,No
2014/10/12,16:00,0.637,0.443,0.675,0.618,0.601,0.277,0.245,south-southeast,4.5,No
2014/10/12,16:10,0.637,0.445,0.674,0.621,0.604,0.275,0.245,south,4.7,No
2014/10/12,16:20,0.634,0.444,0.676,0.614,0.603,0.278,0.246,south,4.3,No
2014/10/12,16:30,0.634,0.443,0.677,0.618,0.601,0.277,0.246,south,3.8,No
2014/10/12,16:40,0.635,0.443,0.675,0.616,0.601,0.278,0.246,south,4.7,No
2014/10/12,16:50,0.632,0.442,0.677,0.613,0.601,0.278,0.246,south,4.2,No
2014/10/12,17:00,0.631,0.443,0.673,0.613,0.603,0.279,0.246,south-southeast,4.1,No
2014/10/12,17:10,0.632,0.442,0.672,0.613,0.601,0.278,0.247,south,3.2,No
2014/10/12,17:20,0.632,0.441,0.673,0.611,0.600,0.278,0.245,south,3.9,No
2014/10/12,17:30,0.630,0.440,0.673,0.613,0.600,0.276,0.246,south,5.1,No
2014/10/12,17:40,0.633,0.439,0.675,0.610,0.600,0.278,0.245,south,5.0,No
2014/10/12,17:50,0.630,0.440,0.674,0.609,0.598,0.278,0.245,south,5.0,No
2014/10/12,18:00,0.633,0.440,0.673,0.612,0.599,0.279,0.246,south,5.1,No
2014/10/12,18:10,0.631,0.440,0.673,0.612,0.597,0.278,0.246,south,5.3,No
2014/10/12,18:20,0.632,0.439,0.672,0.611,0.599,0.277,0.245,south,4.7,No
2014/10/12,18:30,0.632,0.440,0.673,0.612,0.600,0.278,0.247,south,5.3,No
2014/10/12,18:40,0.632,0.439,0.674,0.611,0.598,0.276,0.246,south-southwest,5.6,No
2014/10/12,18:50,0.633,0.440,0.674,0.610,0.599,0.277,0.246,south-southwest,6.3,No
2014/10/12,19:00,0.632,0.439,0.674,0.611,0.598,0.277,0.247,south-southwest,6.7,No
2014/10/12,19:10,0.631,0.439,0.673,0.611,0.599,0.277,0.246,south-southwest,6.9,No
2014/10/12,19:20,0.633,0.441,0.673,0.611,0.599,0.277,0.245,south-southwest,7.2,No
2014/10/12,19:30,0.634,0.440,0.674,0.611,0.601,0.278,0.246,south-southwest,7.1,No
2014/10/12,19:40,0.635,0.440,0.673,0.610,0.600,0.278,0.245,south-southwest,6.2,No
2014/10/12,19:50,0.632,0.440,0.675,0.611,0.600,0.276,0.247,south-southwest,6.4,No
2014/10/12,20:00,0.634,0.439,0.673,0.611,0.601,0.278,0.247,south-southwest,5.8,No
2014/10/12,20:10,0.632,0.440,0.674,0.613,0.601,0.278,0.245,south-southwest,5.3,No
2014/10/12,20:20,0.633,0.440,0.673,0.611,0.600,0.277,0.245,south-southwest,5.8,No
2014/10/12,20:30,0.633,0.440,0.672,0.610,0.601,0.277,0.245,south-southwest,5.9,No
2014/10/12,20:40,0.633,0.439,0.674,0.611,0.600,0.278,0.246,south-southwest,5.7,No
2014/10/12,20:50,0.634,0.442,0.674,0.613,0.602,0.277,0.246,south-southwest,5.8,No
2014/10/12,21:00,0.633,0.441,0.676,0.611,0.600,0.278,0.245,south-southwest,5.9,No
2014/10/12,21:10,0.633,0.440,0.674,0.611,0.602,0.277,0.245,south-southwest,5.8,No
2014/10/12,21:20,0.633,0.439,0.675,0.612,0.600,0.278,0.246,south-southwest,6.2,No
2014/10/12,21:30,0.633,0.439,0.674,0.611,0.600,0.277,0.245,south-southwest,6.6,No
2014/10/12,21:40,0.632,0.440,0.674,0.611,0.601,0.278,0.246,south-southwest,6.7,No
2014/10/12,21:50,0.633,0.441,0.675,0.610,0.600,0.279,0.246,south-southwest,6.6,No
2014/10/12,22:00,0.633,0.441,0.672,0.611,0.601,0.277,0.247,south-southwest,6.3,No
2014/10/12,22:10,0.632,0.440,0.675,0.611,0.600,0.278,0.246,south-southwest,6.4,No
2014/10/12,22:20,0.633,0.440,0.675,0.611,0.600,0.278,0.248,south-southwest,6.1,No
2014/10/12,22:30,0.633,0.441,0.674,0.610,0.600,0.278,0.246,south-southwest,6.0,No
2014/10/12,22:40,0.633,0.440,0.675,0.612,0.600,0.277,0.246,south-southwest,5.9,No
2014/10/12,22:50,0.633,0.439,0.674,0.612,0.601,0.277,0.246,south-southwest,5.8,No
2014/10/12,23:00,0.633,0.440,0.673,0.611,0.601,0.279,0.245,south-southwest,5.6,No
2014/10/12,23:10,0.632,0.440,0.674,0.610,0.600,0.277,0.246,south-southwest,6.5,No
2014/10/12,23:20,0.634,0.440,0.674,0.612,0.602,0.278,0.245,south-southwest,5.9,No
2014/10/12,23:30,0.633,0.440,0.673,0.612,0.601,0.276,0.245,south-southwest,5.3,No
2014/10/12,23:40,0.633,0.440,0.674,0.612,0.602,0.278,0.246,south-southwest,3.6,No
2014/10/12,23:50,0.632,0.440,0.674,0.611,0.602,0.278,0.246,south-southwest,4.6,No
